EW4748 Weather Reports


Display with metric or nautical units.
time (UTC)temp
F
wind
direction
speed
MPH
gust
MPH
rain 1hr
in
rain 24hr
in
rain mn
in
humidity
%
barometer
mb
20190320150018 47 258 5.0 9.0 0.00 0.00 0.00 56 1029.8
20190320145518 47 304 2.0 11.0 0.00 0.00 0.00 55 1029.8
20190320145018 46 228 4.0 11.0 0.00 0.00 0.00 56 1029.9
20190320144518 46 252 4.0 11.0 0.00 0.00 0.00 56 1029.9
20190320144018 46 243 7.0 11.0 0.00 0.00 0.00 57 1029.9
20190320143518 46 226 9.0 14.0 0.00 0.00 0.00 59 1030.0
20190320143018 46 146 7.0 14.0 0.00 0.00 0.00 60 1030.0
20190320142518 46 250 2.0 11.0 0.00 0.00 0.00 63 1030.0
20190320142018 45 198 2.0 9.0 0.00 0.00 0.00 66 1029.9
20190320141519 45 193 2.0 7.0 0.00 0.00 0.00 68 1029.9
20190320141018 44 217 4.0 9.0 0.00 0.00 0.00 68 1029.9
20190320140519 44 193 2.0 9.0 0.00 0.00 0.00 71 1030.0
20190320140018 43 302 2.0 9.0 0.00 0.00 0.00 72 1030.0
20190320135518 43 252 4.0 5.0 0.00 0.00 0.00 74 1030.0
20190320135019 43 227 0.0 4.0 0.00 0.00 0.00 77 1030.0
20190320134518 42 198 2.0 4.0 0.00 0.00 0.00 80 1030.0
20190320134018 41 163 2.0 5.0 0.00 0.00 0.00 84 1030.1
20190320133518 40 150 2.0 5.0 0.00 0.00 0.00 86 1030.0
20190320133018 40 274 2.0 5.0 0.00 0.00 0.00 88 1030.1
20190320132518 39 236 0.0 4.0 0.00 0.00 0.00 90 1030.0
20190320132018 38 190 2.0 2.0 0.00 0.00 0.00 91 1030.1
20190320131518 37 270 0.0 2.0 0.00 0.00 0.00 92 1030.1
20190320131018 36 256 0.0 2.0 0.00 0.00 0.00 93 1030.1
20190320130518 34 165 0.0 0.0 0.00 0.00 0.00 94 1030.2
20190320130018 33 166 0.0 0.0 0.00 0.00 0.00 94 1030.2
20190320125518 32 165 0.0 0.0 0.00 0.00 0.00 94 1030.2
20190320125018 30 166 0.0 0.0 0.00 0.00 0.00 94 1030.2
20190320124518 29 141 0.0 0.0 0.00 0.00 0.00 94 1030.2
20190320124018 28 141 0.0 0.0 0.00 0.00 0.00 94 1030.2
20190320123518 28 141 0.0 0.0 0.00 0.00 0.00 93 1030.2
20190320123018 27 141 0.0 0.0 0.00 0.00 0.00 93 1030.1
20190320122518 26 141 0.0 0.0 0.00 0.00 0.00 93 1030.2
20190320122018 26 141 0.0 0.0 0.00 0.00 0.00 93 1030.2
20190320121518 25 141 0.0 0.0 0.00 0.00 0.00 92 1030.2
20190320121018 25 141 0.0 0.0 0.00 0.00 0.00 92 1030.2
20190320120518 24 141 0.0 0.0 0.00 0.00 0.00 92 1030.2
20190320120018 24 141 0.0 0.0 0.00 0.00 0.00 92 1030.1
20190320115518 24 141 0.0 0.0 0.00 0.00 0.00 92 1030.1
20190320115018 24 141 0.0 0.0 0.00 0.00 0.00 92 1030.1
20190320114518 23 141 0.0 0.0 0.00 0.00 0.00 92 1030.1
20190320114018 23 141 0.0 0.0 0.00 0.00 0.00 92 1030.1
20190320113518 23 141 0.0 0.0 0.00 0.00 0.00 92 1030.1
20190320113018 23 141 0.0 0.0 0.00 0.00 0.00 92 1030.0
20190320112518 23 141 0.0 0.0 0.00 0.00 0.00 92 1030.0
20190320112018 23 141 0.0 0.0 0.00 0.00 0.00 91 1030.0
20190320111518 23 141 0.0 0.0 0.00 0.00 0.00 91 1030.0
20190320111018 22 141 0.0 0.0 0.00 0.00 0.00 91 1030.0
20190320110518 22 140 0.0 0.0 0.00 0.00 0.00 91 1030.0
20190320110018 22 140 0.0 0.0 0.00 0.00 0.00 91 1030.0
20190320105519 22 140 0.0 0.0 0.00 0.00 0.00 91 1030.0
20190320105018 22 137 0.0 0.0 0.00 0.00 0.00 91 1030.0
20190320104518 22 137 0.0 0.0 0.00 0.00 0.00 91 1029.9
20190320104018 22 136 0.0 0.0 0.00 0.00 0.00 90 1030.0
20190320103518 22 136 0.0 0.0 0.00 0.00 0.00 90 1030.0
20190320103018 22 137 0.0 0.0 0.00 0.00 0.00 90 1030.0
20190320102518 23 200 0.0 0.0 0.00 0.00 0.00 90 1029.9
20190320102018 23 200 0.0 0.0 0.00 0.00 0.00 90 1029.9
20190320101518 23 200 0.0 0.0 0.00 0.00 0.00 90 1029.8
20190320101018 23 200 0.0 0.0 0.00 0.00 0.00 90 1029.8
20190320100518 23 200 0.0 0.0 0.00 0.00 0.00 90 1029.7
20190320100018 23 200 0.0 0.0 0.00 0.00 0.00 90 1029.7
20190320095518 23 200 0.0 0.0 0.00 0.00 0.00 90 1029.7
20190320095018 23 200 0.0 0.0 0.00 0.00 0.00 90 1029.7
20190320094518 23 200 0.0 0.0 0.00 0.00 0.00 90 1029.6
20190320094018 23 200 0.0 0.0 0.00 0.00 0.00 90 1029.6
20190320093518 23 200 0.0 0.0 0.00 0.00 0.00 90 1029.6
20190320093019 23 200 0.0 0.0 0.00 0.00 0.00 90 1029.5
20190320092518 23 200 0.0 0.0 0.00 0.00 0.00 90 1029.6
20190320092018 23 200 0.0 0.0 0.00 0.00 0.00 90 1029.5
20190320091518 23 200 0.0 0.0 0.00 0.00 0.00 90 1029.5
20190320091018 23 200 0.0 0.0 0.00 0.00 0.00 90 1029.5
20190320090518 24 200 0.0 0.0 0.00 0.00 0.00 90 1029.5
20190320090018 24 200 0.0 0.0 0.00 0.00 0.00 90 1029.5
20190320085518 24 200 0.0 0.0 0.00 0.00 0.00 90 1029.5
20190320085018 24 200 0.0 0.0 0.00 0.00 0.00 90 1029.6
20190320084518 24 200 0.0 0.0 0.00 0.00 0.00 90 1029.6
20190320084018 24 200 0.0 0.0 0.00 0.00 0.00 90 1029.7
20190320083518 24 200 0.0 0.0 0.00 0.00 0.00 90 1029.8
20190320083018 24 200 0.0 0.0 0.00 0.00 0.00 90 1029.8
20190320082518 24 200 0.0 0.0 0.00 0.00 0.00 90 1029.8
20190320082018 24 200 0.0 0.0 0.00 0.00 0.00 90 1029.8
20190320081518 24 200 0.0 0.0 0.00 0.00 0.00 90 1029.8
20190320081018 24 200 0.0 0.0 0.00 0.00 0.00 90 1029.8
20190320080518 24 200 0.0 0.0 0.00 0.00 0.00 90 1029.8
20190320080018 24 200 0.0 0.0 0.00 0.00 0.00 90 1029.8
20190320075518 24 200 0.0 0.0 0.00 0.00 0.00 90 1029.8
20190320075018 24 200 0.0 0.0 0.00 0.00 0.00 90 1029.8
20190320074519 24 200 0.0 0.0 0.00 0.00 0.00 90 1029.9
20190320074018 24 200 0.0 0.0 0.00 0.00 0.00 90 1029.9
20190320073518 24 200 0.0 0.0 0.00 0.00 0.00 89 1029.9
20190320073021 24 200 0.0 0.0 0.00 0.00 0.00 89 1029.9
20190320072518 24 200 0.0 0.0 0.00 0.00 0.00 89 1030.0
20190320072018 24 200 0.0 0.0 0.00 0.00 0.00 89 1030.0
20190320071518 24 200 0.0 0.0 0.00 0.00 0.00 88 1030.1
20190320071018 24 200 0.0 0.0 0.00 0.00 0.00 88 1030.0
20190320070518 25 200 0.0 0.0 0.00 0.00 0.00 88 1030.1
20190320070018 25 200 0.0 0.0 0.00 0.00 0.00 89 1030.2
20190320065518 25 200 0.0 0.0 0.00 0.00 0.00 89 1030.2
20190320065018 25 200 0.0 0.0 0.00 0.00 0.00 89 1030.2
20190320064518 25 200 0.0 0.0 0.00 0.00 0.00 88 1030.2
20190320064018 25 200 0.0 0.0 0.00 0.00 0.00 88 1030.3
20190320063518 25 200 0.0 0.0 0.00 0.00 0.00 88 1030.3
20190320063018 25 200 0.0 0.0 0.00 0.00 0.00 88 1030.4
20190320062518 26 200 0.0 0.0 0.00 0.00 0.00 88 1030.3
20190320062018 26 200 0.0 0.0 0.00 0.00 0.00 88 1030.3
20190320061518 26 200 0.0 0.0 0.00 0.00 0.00 88 1030.4
20190320061018 26 200 0.0 0.0 0.00 0.00 0.00 88 1030.4
20190320060519 26 200 0.0 0.0 0.00 0.00 0.00 88 1030.3
20190320060019 26 200 0.0 0.0 0.00 0.00 0.00 88 1030.3
20190320055518 26 200 0.0 0.0 0.00 0.00 0.00 88 1030.3
20190320055018 26 200 0.0 0.0 0.00 0.00 0.00 88 1030.2
20190320054518 26 200 0.0 0.0 0.00 0.00 0.00 88 1030.2
20190320054018 26 200 0.0 0.0 0.00 0.00 0.00 88 1030.2
20190320053518 26 200 0.0 0.0 0.00 0.00 0.00 87 1030.2
20190320053018 27 200 0.0 0.0 0.00 0.00 0.00 87 1030.2
20190320052518 27 200 0.0 0.0 0.00 0.00 0.00 87 1030.1
20190320052018 27 200 0.0 0.0 0.00 0.00 0.00 87 1030.2
20190320051518 27 200 0.0 0.0 0.00 0.00 0.00 87 1030.1
20190320051018 27 200 0.0 0.0 0.00 0.00 0.00 86 1030.1
20190320050518 27 200 0.0 0.0 0.00 0.00 0.00 86 1030.2
20190320050018 27 200 0.0 0.0 0.00 0.00 0.00 86 1030.2
20190320045518 28 200 0.0 0.0 0.00 0.00 0.00 86 1030.2
20190320045018 28 200 0.0 0.0 0.00 0.00 0.00 85 1030.2
20190320044518 28 200 0.0 0.0 0.00 0.00 0.00 85 1030.2
20190320044018 28 200 0.0 0.0 0.00 0.00 0.00 85 1030.2
20190320043518 28 200 0.0 0.0 0.00 0.00 0.00 85 1030.2
20190320043018 28 200 0.0 0.0 0.00 0.00 0.00 85 1030.3
20190320042518 29 200 0.0 0.0 0.00 0.00 0.00 84 1030.3
20190320042018 29 200 0.0 0.0 0.00 0.00 0.00 84 1030.3
20190320041518 29 200 0.0 0.0 0.00 0.00 0.00 84 1030.4
20190320041018 29 200 0.0 0.0 0.00 0.00 0.00 84 1030.3
20190320040519 29 200 0.0 0.0 0.00 0.00 0.00 84 1030.3
20190320040018 30 200 0.0 0.0 0.00 0.00 0.00 83 1030.2
20190320035518 30 200 0.0 0.0 0.00 0.00 0.00 83 1030.3
20190320035019 30 200 0.0 0.0 0.00 0.00 0.00 82 1030.3
20190320034518 30 200 0.0 0.0 0.00 0.00 0.00 82 1030.4
20190320034018 30 200 0.0 0.0 0.00 0.00 0.00 82 1030.4
20190320033518 30 200 0.0 0.0 0.00 0.00 0.00 81 1030.4
20190320033018 31 200 0.0 0.0 0.00 0.00 0.00 81 1030.5
20190320032518 31 200 0.0 0.0 0.00 0.00 0.00 80 1030.5
20190320032018 31 200 0.0 0.0 0.00 0.00 0.00 80 1030.5
20190320031518 32 200 0.0 0.0 0.00 0.00 0.00 79 1030.4
20190320031018 32 200 0.0 0.0 0.00 0.00 0.00 79 1030.5
20190320030518 32 200 0.0 0.0 0.00 0.00 0.00 79 1030.5
20190320030018 33 200 0.0 0.0 0.00 0.00 0.00 78 1030.4
20190320025518 33 200 0.0 0.0 0.00 0.00 0.00 78 1030.4
20190320025018 33 200 0.0 0.0 0.00 0.00 0.00 78 1030.4
20190320024520 34 200 0.0 0.0 0.00 0.00 0.00 78 1030.5
20190320024018 34 200 0.0 0.0 0.00 0.00 0.00 78 1030.5
20190320023518 34 200 0.0 0.0 0.00 0.00 0.00 77 1030.5
20190320023018 34 200 0.0 0.0 0.00 0.00 0.00 77 1030.4
20190320022518 34 200 0.0 0.0 0.00 0.00 0.00 77 1030.5
20190320022018 34 200 0.0 0.0 0.00 0.00 0.00 77 1030.5
20190320021518 34 200 0.0 0.0 0.00 0.00 0.00 76 1030.5
20190320021018 34 200 0.0 0.0 0.00 0.00 0.00 76 1030.5
20190320020518 34 200 0.0 0.0 0.00 0.00 0.00 76 1030.5
20190320020018 35 200 0.0 0.0 0.00 0.00 0.00 76 1030.4
20190320015519 35 233 0.0 0.0 0.00 0.00 0.00 76 1030.3
20190320015018 35 233 0.0 2.0 0.00 0.00 0.00 76 1030.3
20190320014518 34 234 0.0 2.0 0.00 0.00 0.00 76 1030.4
20190320014018 34 171 0.0 2.0 0.00 0.00 0.00 76 1030.4
20190320013518 34 241 0.0 0.0 0.00 0.00 0.00 76 1030.4
20190320013018 34 257 0.0 0.0 0.00 0.00 0.00 75 1030.3
20190320012518 34 257 0.0 0.0 0.00 0.00 0.00 74 1030.3
20190320012018 34 257 0.0 0.0 0.00 0.00 0.00 74 1030.3
20190320011518 34 257 0.0 0.0 0.00 0.00 0.00 73 1030.2
20190320011018 35 257 0.0 0.0 0.00 0.00 0.00 72 1030.2
20190320010518 35 257 0.0 0.0 0.00 0.00 0.00 72 1030.2
20190320010018 35 257 0.0 0.0 0.00 0.00 0.00 71 1030.1
20190320005518 36 257 0.0 0.0 0.00 0.00 0.00 71 1030.1
20190320005018 36 257 0.0 0.0 0.00 0.00 0.00 71 1030.0
20190320004518 36 257 0.0 0.0 0.00 0.00 0.00 71 1029.9
20190320004018 36 257 0.0 0.0 0.00 0.00 0.00 70 1029.9
20190320003518 37 257 0.0 0.0 0.00 0.00 0.00 70 1029.9
20190320003018 37 257 0.0 2.0 0.00 0.00 0.00 69 1029.9
20190320002518 37 262 0.0 2.0 0.00 0.00 0.00 69 1029.8
20190320002018 37 264 0.0 2.0 0.00 0.00 0.00 69 1029.8
20190320001519 38 203 0.0 0.0 0.00 0.00 0.00 68 1029.7
20190320001018 38 231 0.0 2.0 0.00 0.00 0.00 68 1029.7
20190320000518 38 150 0.0 2.0 0.00 0.00 0.00 68 1029.6
20190320000022 38 195 0.0 2.0 0.00 0.00 0.00 67 1029.6
20190319235518 38 169 0.0 2.0 0.00 0.00 0.00 67 1029.5
20190319235018 38 289 0.0 2.0 0.00 0.00 0.00 66 1029.5
20190319234518 38 176 0.0 2.0 0.00 0.00 0.00 66 1029.3
20190319234018 38 189 0.0 4.0 0.00 0.00 0.00 66 1029.3
20190319233518 39 169 2.0 4.0 0.00 0.00 0.00 66 1029.2
20190319233018 39 199 0.0 2.0 0.00 0.00 0.00 65 1029.2
20190319232518 39 304 0.0 2.0 0.00 0.00 0.00 64 1029.1
20190319232018 40 304 0.0 2.0 0.00 0.00 0.00 63 1029.0
20190319231518 40 197 0.0 2.0 0.00 0.00 0.00 62 1028.9
20190319231018 40 233 0.0 2.0 0.00 0.00 0.00 62 1028.9
20190319230518 41 233 0.0 2.0 0.00 0.00 0.00 61 1028.8
20190319230018 41 211 0.0 2.0 0.00 0.00 0.00 61 1028.7
20190319225518 41 153 0.0 2.0 0.00 0.00 0.00 61 1028.7
20190319225018 41 149 0.0 2.0 0.00 0.00 0.00 61 1028.7
20190319224518 42 213 0.0 2.0 0.00 0.00 0.00 60 1028.7
20190319224018 42 259 0.0 4.0 0.00 0.00 0.00 60 1028.6
20190319223518 42 195 0.0 4.0 0.00 0.00 0.00 59 1028.6
20190319223018 43 243 2.0 5.0 0.00 0.00 0.00 59 1028.6
20190319222518 43 176 0.0 7.0 0.00 0.00 0.00 59 1028.5
20190319222018 43 211 2.0 7.0 0.00 0.00 0.00 57 1028.5
20190319221518 43 234 7.0 7.0 0.00 0.00 0.00 56 1028.5
20190319221018 44 150 0.0 5.0 0.00 0.00 0.00 55 1028.4
20190319220518 44 224 0.0 5.0 0.00 0.00 0.00 54 1028.4
20190319220018 44 198 0.0 7.0 0.00 0.00 0.00 54 1028.4
20190319215518 44 244 5.0 7.0 0.00 0.00 0.00 55 1028.4
20190319215018 44 271 2.0 4.0 0.00 0.00 0.00 55 1028.5
20190319214518 44 193 0.0 4.0 0.00 0.00 0.00 56 1028.5
20190319214018 43 177 0.0 5.0 0.00 0.00 0.00 57 1028.5
20190319213518 43 256 0.0 7.0 0.00 0.00 0.00 57 1028.5
20190319213018 44 204 2.0 7.0 0.00 0.00 0.00 56 1028.5
20190319212518 44 290 2.0 5.0 0.00 0.00 0.00 54 1028.5
20190319212018 45 191 2.0 5.0 0.00 0.00 0.00 50 1028.6
20190319211518 46 244 4.0 5.0 0.00 0.00 0.00 47 1028.5
20190319211019 46 154 2.0 9.0 0.00 0.00 0.00 38 1028.5
20190319210518 46 250 2.0 11.0 0.00 0.00 0.00 38 1028.5
20190319210018 46 286 4.0 14.0 0.00 0.00 0.00 37 1028.5
20190319205518 46 176 2.0 14.0 0.00 0.00 0.00 36 1028.5
20190319205018 46 319 2.0 13.0 0.00 0.00 0.00 36 1028.5
20190319204518 46 306 4.0 16.0 0.00 0.00 0.00 36 1028.5
20190319204018 46 238 9.0 16.0 0.00 0.00 0.00 36 1028.5
20190319203518 46 275 9.0 14.0 0.00 0.00 0.00 37 1028.6
20190319203018 46 295 9.0 14.0 0.00 0.00 0.00 36 1028.6
20190319202518 46 280 4.0 14.0 0.00 0.00 0.00 37 1028.6
20190319202018 46 271 4.0 14.0 0.00 0.00 0.00 37 1028.5
20190319201518 45 279 5.0 14.0 0.00 0.00 0.00 39 1028.5
20190319201018 45 231 7.0 16.0 0.00 0.00 0.00 38 1028.6
20190319200518 46 307 2.0 16.0 0.00 0.00 0.00 37 1028.7
20190319200018 46 300 5.0 13.0 0.00 0.00 0.00 38 1028.7
20190319195518 46 319 4.0 18.0 0.00 0.00 0.00 37 1028.6
20190319195018 46 290 7.0 18.0 0.00 0.00 0.00 36 1028.6
20190319194518 46 300 4.0 16.0 0.00 0.00 0.00 36 1028.6
20190319194018 47 264 9.0 14.0 0.00 0.00 0.00 37 1028.6
20190319193518 46 49 4.0 14.0 0.00 0.00 0.00 37 1028.5
20190319193018 46 298 7.0 18.0 0.00 0.00 0.00 36 1028.6
20190319192518 47 284 14.0 18.0 0.00 0.00 0.00 36 1028.6
20190319192018 46 354 13.0 14.0 0.00 0.00 0.00 37 1028.6
20190319191518 46 32 2.0 14.0 0.00 0.00 0.00 36 1028.7
20190319191018 46 315 4.0 14.0 0.00 0.00 0.00 38 1028.8
20190319190518 46 300 4.0 18.0 0.00 0.00 0.00 37 1028.7
20190319190019 46 338 5.0 18.0 0.00 0.00 0.00 38 1028.8
20190319185518 45 316 2.0 16.0 0.00 0.00 0.00 39 1028.8
20190319185018 45 257 7.0 16.0 0.00 0.00 0.00 38 1028.9
20190319184518 45 277 7.0 16.0 0.00 0.00 0.00 38 1029.0
20190319184018 45 300 9.0 14.0 0.00 0.00 0.00 38 1029.0
20190319183518 45 314 2.0 14.0 0.00 0.00 0.00 37 1029.1
20190319183018 45 338 7.0 11.0 0.00 0.00 0.00 38 1029.1
20190319182518 45 307 7.0 13.0 0.00 0.00 0.00 38 1029.2
20190319182018 45 308 0.0 13.0 0.00 0.00 0.00 39 1029.3
20190319181518 45 288 5.0 13.0 0.00 0.00 0.00 38 1029.4
20190319181018 45 308 5.0 13.0 0.00 0.00 0.00 39 1029.5
20190319180518 45 326 7.0 11.0 0.00 0.00 0.00 37 1029.6
20190319180018 44 311 4.0 16.0 0.00 0.00 0.00 39 1029.7
20190319175518 44 351 7.0 16.0 0.00 0.00 0.00 38 1029.8
20190319175018 44 275 7.0 16.0 0.00 0.00 0.00 39 1029.9
20190319174518 44 311 5.0 16.0 0.00 0.00 0.00 38 1029.9
20190319174018 44 319 9.0 16.0 0.00 0.00 0.00 38 1030.0
20190319173518 44 191 2.0 11.0 0.00 0.00 0.00 38 1030.0
20190319173018 44 308 7.0 11.0 0.00 0.00 0.00 39 1030.1
20190319172518 44 319 7.0 25.0 0.00 0.00 0.00 40 1030.1
20190319172018 44 47 2.0 25.0 0.00 0.00 0.00 39 1030.1
20190319171518 44 208 7.0 18.0 0.00 0.00 0.00 38 1030.1
20190319171018 44 307 4.0 11.0 0.00 0.00 0.00 41 1030.1
20190319170519 44 309 2.0 11.0 0.00 0.00 0.00 42 1030.2
20190319170019 44 342 2.0 13.0 0.00 0.00 0.00 42 1030.2
20190319165518 43 288 4.0 13.0 0.00 0.00 0.00 42 1030.3
20190319165018 43 217 4.0 11.0 0.00 0.00 0.00 41 1030.3
20190319164518 43 304 4.0 9.0 0.00 0.00 0.00 42 1030.4
20190319164018 42 312 2.0 14.0 0.00 0.00 0.00 43 1030.4
20190319163518 42 307 4.0 14.0 0.00 0.00 0.00 42 1030.4
20190319163018 42 250 14.0 14.0 0.00 0.00 0.00 42 1030.4
20190319162518 43 310 5.0 14.0 0.00 0.00 0.00 42 1030.3
20190319162018 42 303 2.0 14.0 0.00 0.00 0.00 39 1030.3
20190319161518 43 25 5.0 13.0 0.00 0.00 0.00 40 1030.3
20190319161018 43 27 4.0 13.0 0.00 0.00 0.00 40 1030.4
20190319160518 43 56 4.0 11.0 0.00 0.00 0.00 41 1030.3
20190319160018 43 301 9.0 14.0 0.00 0.00 0.00 40 1030.5
20190319155518 43 276 7.0 14.0 0.00 0.00 0.00 41 1030.4
20190319155018 43 340 2.0 9.0 0.00 0.00 0.00 44 1030.3
20190319154518 43 288 5.0 9.0 0.00 0.00 0.00 43 1030.3
20190319154018 43 304 4.0 7.0 0.00 0.00 0.00 42 1030.2
20190319153518 42 288 4.0 5.0 0.00 0.00 0.00 40 1030.3
20190319153018 42 295 4.0 9.0 0.00 0.00 0.00 42 1030.3
20190319152518 42 319 2.0 9.0 0.00 0.00 0.00 42 1030.2
20190319152018 42 200 2.0 5.0 0.00 0.00 0.00 45 1030.2
20190319151518 41 219 2.0 9.0 0.00 0.00 0.00 44 1030.3
20190319151018 41 194 4.0 9.0 0.00 0.00 0.00 45 1030.3
20190319150518 41 263 4.0 5.0 0.00 0.00 0.00 49 1030.3